User: anonymous   Login
Location: Unspecified
(0.0000°N, 0.0000°E)
Time: 00:13:18
(UTC+00:00)
Language:

AAUSAT3 - Orbit

View from above orbital plane
View from above orbital plane
View from above satellite
View from above satellite

Ground track
Ground track

The orbit data is extracted from the following two-line orbital elements,

1 39087U 13009B   17328.54103134  .00000159  00000-0  70332-4 0  9996
2 39087  98.5343 172.2879 0012350 180.1189 180.0009 14.35563535248525
Epoch (UTC): 24 November 2017 12:59:05
Eccentricity: 0.0012350
inclination: 98.5343°
perigee height: 764 km
apogee height: 782 km
right ascension of ascending node: 172.2879°
argument of perigee: 180.1189°
revolutions per day: 14.35563535
mean anomaly at epoch: 180.0009°
orbit number at epoch: 24852

The dashed part of the orbit path shows where the satellite is in the earth's shadow,  

DLR